Location: Dresden
(51.0483°N, 13.7137°E)
Time: 12:30:14
(UTC+02:00)

ISS - Visible Passes

Search period start: 13 May 2021 00:00
Search period end: 23 May 2021 00:00
Orbit: 417 x 422 km, 51.6° (Epoch: 13 May)

Date Brightness Start Highest point End Pass type
(mag) Time Alt. Az. Time Alt. Az. Time Alt. Az.
13 May -1.6 00:32:06 17° E 00:32:06 17° E 00:33:00 10° E visible
13 May -3.7 02:05:02 32° W 02:06:29 78° N 02:09:53 10° E visible
13 May -3.8 03:39:57 10° W 03:43:18 64° SSW 03:46:40 10° ESE visible
14 May -3.8 01:18:39 67° WNW 01:19:02 81° N 01:22:24 10° E visible
14 May -3.9 02:52:30 10° W 02:55:53 80° SSW 02:59:16 10° ESE visible
14 May -2.7 04:29:33 10° W 04:32:25 25° SSW 04:35:15 10° SSE visible
14 May -3.2 22:51:51 10° SW 22:54:56 34° SSE 22:58:02 10° E visible
15 May -3.9 00:28:10 10° W 00:31:33 89° NW 00:34:57 10° E visible
15 May -3.8 02:05:04 10° W 02:08:27 88° N 02:11:50 10° E visible
15 May -3.2 03:41:58 10° W 03:45:06 35° SSW 03:48:13 10° SE visible
15 May -2.7 22:04:50 10° SSW 22:07:37 24° SE 22:10:26 10° E visible
15 May -3.9 23:40:45 10° WSW 23:44:08 78° SSE 23:47:30 10° E visible
16 May -3.7 01:17:36 10° W 01:20:59 80° N 01:24:23 10° E visible
16 May -3.6 02:54:28 10° W 02:57:44 48° SSW 03:01:01 10° SE visible
16 May -1.8 04:32:29 10° WSW 04:33:56 12° SW 04:35:24 10° SSW visible
16 May -3.8 22:53:22 10° WSW 22:56:42 62° SSE 23:00:03 10° E visible
17 May -3.7 00:30:08 10° W 00:33:31 78° N 00:36:55 10° E visible
17 May -3.9 02:06:59 10° W 02:10:21 64° SSW 02:13:41 10° ESE visible
17 May -2.3 03:44:20 10° W 03:46:43 18° SW 03:49:05 10° S visible
17 May -3.5 22:06:04 10° SW 22:09:19 46° SSE 22:12:34 10° E visible
17 May -3.7 23:42:40 10° W 23:46:03 81° N 23:49:26 10° E visible
18 May -3.9 01:19:33 10° W 01:22:55 80° SSW 01:22:55 80° SSW visible
18 May -3.8 22:55:13 10° W 22:58:35 89° NNW 23:01:59 10° E visible
19 May -3.8 00:32:05 10° W 00:35:29 88° N 00:36:31 42° E visible
19 May -1.3 02:09:00 10° W 02:09:26 13° W 02:09:26 13° W visible
19 May -3.8 22:07:47 10° WSW 22:11:09 78° SSE 22:14:31 10° E visible
19 May -3.7 23:44:38 10° W 23:48:01 80° N 23:50:21 19° E visible
20 May -2.4 01:21:30 10° W 01:23:16 27° W 01:23:16 27° W visible
20 May -3.7 22:57:10 10° W 23:00:33 78° N 23:03:55 10° E visible
21 May -3.8 00:34:01 10° W 00:37:12 62° SW 00:37:12 62° SW visible
21 May -3.7 22:09:41 10° W 22:13:04 81° N 22:16:27 10° E visible
21 May -3.9 23:46:33 10° W 23:49:56 79° SSW 23:51:10 36° ESE visible
22 May -1.3 01:23:36 10° W 01:24:06 13° W 01:24:06 13° W visible
22 May -3.8 22:59:06 10° W 23:02:29 88° N 23:05:10 15° E visible
